Temperature
1 1 2 2 2 2 2 2 2 3 3 3 3 3 4 4 4 4 4 4 4 4 4 5 5 5 5 5 6 5 5 5 5 5 5 5 4 4 4 4 4 5 4 4
1 1 2 2 2 2 2 2 1 2 2 2 3 3 3 3 3 3 3 3 4 4 4 4 5 5 5 5 5 5 5 4 4 4 4 4 4 4 4 4 4 4 4 4
1 0 1 2 2 1 1 1 1 2 2 2 2 2 2 3 3 3 3 3 3 3 4 4 4 4 4 4 4 4 4 4 4 4 3 3 3 3 3 3 3 3 3 3
-1 0 2 3 1 1 1 1 0 1 1 1 2 2 3 3 3 3 3 3 3 3 3 3 3 3 4 4 4 3 3 3 3 3 3 3 3 3 3 3 3 3 3 3
-1 -1 0 2 1 0 1 1 0 0 0 1 2 1 2 2 2 3 3 3 3 3 3 3 3 3 3 3 3 3 3 3 2 2 2 2 2 2 2 2 2 2 2 2
-2 -0 1 2 1 1 1 1 0 -0 -0 0 1 0 1 2 2 2 2 2 2 2 2 2 2 2 2 2 2 2 2 2 2 2 2 2 2 2 1 1 1 1 1 1
-2 -1 -0 0 0 1 2 2 1 1 1 0 -0 1 2 2 2 2 2 2 2 2 1 1 2 2 2 2 2 2 2 1 1 1 1 1 1 1 1 1 1 1 1 0
-3 -2 -0 -0 -1 -0 1 1 1 1 1 1 1 1 1 1 1 1 1 1 1 1 1 1 1 1 1 1 1 1 1 1 1 1 0 0 0 0 0 -0 -0 0 -0 -0
-2 -0 -0 -0 0 1 1 1 1 1 1 0 0 0 0 0 1 1 1 1 0 0 1 1 0 0 1 1 0 0 1 0 0 0 -0 -0 -0 -0 -1 -1 -1 -1 -1 -1
-3 -2 -1 -1 0 0 1 1 1 1 0 0 0 -0 -0 -0 -0 -0 -0 -0 -0 -0 -0 0 0 -0 -0 -0 -0 -0 -0 -0 -0 -1 -1 -1 -1 -1 -1 -1 -1 -1 -1 -1
-3 -2 -2 -0 0 1 0 0 0 0 0 -0 -0 -0 -1 -1 -1 -1 -1 -1 -1 -1 -1 -1 -1 -1 -1 -1 -1 -1 -1 -1 -1 -1 -1 -1 -1 -1 -1 -1 -2 -2 -2 -2
-1 -1 -1 0 1 1 0 0 -0 -0 -0 -1 -1 -1 -1 -1 -1 -1 -1 -1 -1 -1 -1 -1 -1 -1 -1 -2 -2 -1 -1 -1 -1 -1 -2 -2 -2 -2 -2 -2 -2 -2 -2 -2
0 0 0 0 0 0 -0 -0 -0 -1 -1 -1 -1 -1 -1 -1 -2 -2 -2 -2 -2 -2 -2 -2 -2 -2 -2 -2 -2 -2 -2 -2 -2 -2 -2 -2 -2 -2 -2 -2 -3 -3 -3 -3
-0 -0 -1 -1 -1 -1 -1 -1 -1 -1 -1 -2 -2 -2 -2 -2 -2 -2 -2 -2 -2 -2 -2 -2 -2 -2 -2 -2 -2 -2 -2 -2 -2 -2 -2 -3 -3 -3 -3 -3 -3 -3 -3 -3
-1 -1 -1 -1 -1 -2 -2 -2 -2 -2 -2 -2 -2 -2 -2 -2 -2 -2 -2 -3 -3 -3 -3 -3 -3 -2 -2 -3 -3 -3 -3 -3 -3 -3 -3 -3 -3 -4 -4 -4 -4 -4 -4 -4
-2 -2 -2 -2 -2 -2 -2 -2 -2 -2 -2 -2 -3 -3 -3 -3 -3 -3 -3 -3 -3 -3 -3 -3 -3 -3 -3 -3 -3 -3 -3 -3 -3 -4 -4 -4 -4 -4 -4 -4 -4 -4 -4 -4
-2 -3 -3 -3 -3 -3 -3 -3 -3 -3 -3 -3 -3 -3 -3 -3 -3 -3 -3 -3 -3 -3 -3 -3 -3 -3 -3 -4 -4 -4 -4 -4 -4 -4 -4 -4 -4 -4 -5 -5 -5 -5 -5 -5
-2 -2 -2 -3 -3 -3 -3 -3 -3 -3 -3 -3 -3 -3 -3 -3 -3 -3 -3 -4 -4 -4 -4 -4 -4 -4 -4 -4 -4 -4 -4 -4 -4 -4 -5 -5 -5 -5 -5 -5 -5 -5 -5 -5
-3 -3 -3 -3 -3 -3 -3 -3 -3 -3 -3 -3 -3 -4 -4 -4 -4 -4 -4 -4 -4 -4 -4 -4 -4 -4 -4 -4 -4 -4 -4 -4 -5 -5 -5 -5 -5 -5 -5 -6 -6 -6 -6 -6
-3 -3 -3 -3 -3 -3 -3 -3 -3 -3 -3 -4 -4 -4 -4 -4 -4 -4 -4 -4 -4 -4 -4 -4 -4 -4 -4 -4 -4 -5 -5 -5 -5 -5 -5 -5 -5 -6 -6 -6 -6 -6 -6 -6
-3 -3 -4 -3 -3 -3 -3 -3 -4 -4 -4 -4 -4 -4 -4 -4 -4 -5 -4 -4 -4 -4 -5 -5 -5 -5 -5 -5 -5 -5 -5 -5 -5 -5 -6 -6 -6 -6 -6 -6 -6 -6 -6 -7
-4 -4 -4 -4 -4 -4 -4 -4 -4 -4 -4 -4 -4 -5 -5 -5 -5 -5 -5 -5 -5 -5 -5 -5 -5 -5 -5 -5 -6 -6 -6 -6 -6 -6 -6 -6 -6 -6 -6 -6 -7 -7 -7 -7
-4 -4 -4 -4 -4 -4 -4 -4 -4 -4 -5 -5 -5 -5 -5 -5 -5 -5 -5 -5 -5 -5 -5 -5 -6 -6 -6 -6 -6 -6 -6 -6 -6 -6 -6 -6 -6 -7 -7 -7 -7 -7 -7 -7
-4 -5 -5 -5 -5 -5 -5 -5 -5 -5 -5 -5 -5 -5 -5 -5 -5 -5 -5 -5 -6 -6 -6 -6 -6 -6 -6 -6 -6 -6 -6 -7 -7 -7 -7 -7 -7 -7 -7 -7 -7 -7 -7 -7
-5 -5 -5 -5 -5 -5 -5 -5 -5 -5 -5 -5 -5 -5 -6 -6 -6 -6 -6 -6 -6 -6 -6 -6 -6 -6 -6 -7 -7 -7 -7 -7 -7 -7 -7 -7 -7 -7 -7 -7 -7 -7 -8 -8
-5 -6 -6 -6 -6 -6 -6 -6 -6 -6 -6 -6 -6 -6 -6 -6 -6 -6 -6 -6 -6 -6 -6 -6 -7 -7 -7 -7 -7 -7 -7 -7 -7 -7 -7 -7 -7 -7 -7 -7 -8 -8 -8 -8
-6 -6 -6 -6 -6 -6 -6 -6 -6 -6 -6 -6 -6 -6 -6 -6 -6 -7 -7 -7 -7 -7 -7 -7 -7 -7 -7 -7 -7 -7 -7 -8 -8 -8 -7 -8 -8 -8 -8 -8 -8 -8 -8 -8
Wind_Speed
6 7 6 7 8 7 8 8 8 8 8 10 7 6 5 4 2 1 2 2 2 2 2 2 2 2 2 1 1 2 2 2 2 2 1 1 1 1 1 1 1 1 2 2
4 4 5 7 9 10 10 8 10 9 11 9 7 4 4 4 3 3 3 3 3 2 2 2 2 2 2 2 1 1 2 2 1 1 1 1 1 0 0 1 1 1 1 1
4 3 3 7 9 10 7 7 7 10 10 5 4 5 6 5 4 5 4 3 4 4 4 4 3 3 3 2 1 1 2 1 1 1 1 1 1 0 0 1 1 1 1 1
1 2 5 6 2 5 7 6 6 6 6 4 6 5 4 3 4 5 4 4 4 4 3 3 3 2 2 1 1 2 2 2 1 1 1 1 0 0 1 0 0 1 1 1
1 3 7 6 3 3 5 6 5 7 7 6 5 4 4 4 3 5 5 5 4 4 3 3 2 2 1 1 1 1 2 2 1 1 1 0 0 0 1 1 1 1 0 1
3 3 6 5 3 2 2 5 4 5 6 4 1 2 6 4 3 4 4 3 3 2 2 2 3 1 1 1 1 2 2 2 2 1 1 1 1 0 1 1 1 1 1 1
5 5 8 6 2 2 3 6 3 3 4 3 4 6 5 3 3 4 3 3 2 1 2 3 2 1 2 2 3 3 2 1 1 1 1 1 0 0 0 0 0 1 1 1
5 5 8 3 4 5 6 3 2 3 3 4 5 5 4 3 3 3 3 2 1 1 2 2 1 2 2 3 3 2 1 1 1 1 1 1 1 0 0 1 1 0 1 2
8 8 4 3 5 4 2 3 3 3 3 3 4 4 4 3 3 2 2 2 2 1 2 2 1 2 2 3 2 1 1 1 1 0 0 1 1 1 0 0 1 1 1 1
5 8 6 5 5 4 4 4 4 4 4 3 4 4 4 3 3 2 2 2 1 1 1 2 2 1 2 2 1 1 1 1 1 1 0 0 0 1 1 1 1 1 1 2
6 7 5 6 6 6 5 4 4 4 3 4 4 4 4 3 3 3 2 2 1 2 2 3 2 2 1 1 1 1 1 1 1 1 1 0 1 1 1 2 2 2 2 2
8 7 5 6 5 4 5 5 5 4 4 3 4 5 4 4 3 3 3 2 2 2 2 2 2 2 1 1 2 2 2 2 1 1 1 1 1 2 2 2 3 3 3 2
7 5 5 6 5 4 4 5 4 4 5 4 4 4 4 3 3 2 2 2 2 3 3 2 2 2 2 1 1 2 2 2 1 1 1 1 1 1 2 2 2 2 3 3
6 4 4 4 4 4 4 3 3 3 3 3 3 2 2 3 2 2 3 3 3 2 2 2 2 3 2 1 1 2 2 2 2 2 2 2 2 2 2 2 2 2 2 3
6 5 6 4 3 2 2 1 2 2 2 3 2 2 3 3 3 4 3 2 1 2 2 2 2 4 2 1 2 2 2 2 2 2 2 2 2 2 2 2 2 2 2 2
4 3 3 3 4 3 2 2 3 3 3 3 3 3 3 3 3 3 3 2 2 3 3 2 3 4 2 1 2 2 2 3 2 2 2 1 2 2 2 2 2 2 2 2
4 4 4 4 5 4 4 4 4 4 3 3 4 3 2 2 2 3 3 2 3 3 3 3 4 3 2 2 2 2 2 2 2 1 2 2 2 2 2 2 2 2 2 3
6 7 6 6 5 5 4 4 4 4 4 4 3 2 2 3 4 4 4 2 2 3 3 4 3 2 2 2 2 2 2 2 2 2 2 2 2 2 2 2 2 2 2 3
3 4 4 4 5 4 4 4 4 4 4 3 3 3 4 4 4 4 3 2 3 4 5 4 4 2 3 3 2 2 2 2 2 2 2 3 2 2 2 2 2 2 2 2
3 2 2 3 3 3 4 4 3 4 4 3 3 3 4 4 4 3 3 3 4 4 4 3 2 2 3 3 3 2 2 3 3 2 2 2 2 2 2 3 3 3 3 3
3 3 3 3 3 3 4 4 4 4 4 4 4 5 5 4 3 3 3 4 4 4 3 4 2 3 3 3 3 2 3 3 3 3 3 3 3 3 3 3 3 3 3 3
3 3 3 3 3 4 4 3 4 4 4 4 5 4 4 4 4 3 4 5 4 4 2 2 3 4 4 3 2 2 3 3 3 3 3 3 3 3 3 3 3 3 3 3
4 4 4 4 4 4 4 3 4 4 5 5 5 5 5 5 4 3 5 4 3 4 3 3 4 5 4 2 2 2 3 3 3 3 3 3 3 3 3 3 3 3 3 3
4 4 4 3 2 3 4 5 4 4 4 5 5 5 5 4 4 4 4 5 5 5 3 5 5 5 4 1 2 2 3 3 3 3 3 3 3 3 3 3 3 3 3 3
4 4 3 3 4 4 5 4 4 4 4 4 5 5 4 4 5 4 4 4 6 5 3 4 5 5 3 2 2 3 3 4 3 3 3 3 3 3 3 3 3 3 3 3
4 4 5 5 5 4 4 3 4 4 4 4 4 4 4 3 4 4 3 4 4 4 3 3 3 3 2 3 3 3 3 3 4 3 3 3 3 3 3 3 3 3 3 3
4 4 3 3 4 4 4 4 5 5 5 5 5 4 4 3 3 3 3 3 3 3 3 3 3 3 3 3 3 3 3 3 3 3 3 3 3 3 3 3 3 3 3 3
Wind_Direction
259 259 236 243 239 220 215 216 225 248 249 262 266 257 254 253 253 268 288 283 270 248 258 264 278 285 285 280 217 168 164 171 207 222 209 202 220 241 261 264 272 226 200 205
280 264 256 259 248 234 235 233 240 257 266 265 269 269 265 254 234 235 244 250 261 263 263 261 261 269 282 290 267 174 170 187 195 195 190 216 226 222 13 335 345 2 229 198
271 302 323 265 237 215 220 221 211 233 252 280 279 265 254 248 239 239 240 244 250 253 254 252 251 246 248 253 245 184 181 186 191 184 184 246 267 29 351 315 1 1 334 261
273 25 244 248 210 194 215 241 228 247 277 272 267 276 276 253 237 252 255 252 253 258 266 270 264 260 252 234 194 189 187 195 204 182 187 239 255 10 319 338 6 355 330 308
174 252 272 289 265 191 207 263 237 243 269 281 295 323 303 287 256 247 251 254 250 244 251 259 261 255 224 209 188 185 202 215 217 181 172 247 329 344 337 17 6 336 341 359
170 222 245 255 265 204 147 273 253 230 258 276 329 282 276 294 286 275 270 262 255 264 269 259 268 239 190 214 207 226 236 234 220 181 181 221 240 326 9 27 344 5 13 22
200 234 263 258 257 131 179 255 280 230 251 243 224 241 273 293 284 278 269 265 255 240 246 256 260 198 200 221 237 246 244 227 204 174 188 194 140 65 79 36 49 60 9 355
178 214 255 222 144 182 224 279 278 253 244 239 253 272 284 289 286 293 302 299 274 233 262 274 244 185 215 245 256 251 203 195 196 182 188 149 130 69 108 134 133 67 356 338
198 218 257 193 209 236 226 251 265 254 259 243 261 272 278 286 289 292 293 287 278 233 260 282 255 198 222 264 269 218 191 210 209 206 186 158 157 173 158 146 170 250 262 291
244 260 260 257 257 270 256 253 260 258 257 242 247 259 269 276 277 284 294 289 278 260 259 277 284 257 236 261 268 195 207 217 197 185 223 237 208 213 211 212 216 234 244 262
253 271 286 269 246 252 264 263 266 273 263 244 240 253 252 264 267 264 276 282 263 243 252 264 274 274 262 248 207 201 231 237 224 209 197 227 289 272 256 246 228 231 235 229
236 233 221 255 249 239 242 250 250 253 264 261 237 245 247 254 257 258 263 269 268 265 266 267 263 267 267 242 206 196 218 235 232 219 215 215 273 320 317 272 277 276 268 253
239 248 240 261 265 243 240 249 250 244 243 253 251 240 241 252 251 250 258 259 254 256 261 267 271 269 270 245 218 214 220 228 227 219 213 218 225 236 291 317 297 281 276 275
249 249 261 259 260 261 253 257 256 254 247 243 244 244 237 247 260 253 252 253 250 253 256 255 259 271 272 233 212 222 223 228 228 230 224 225 231 234 232 245 283 300 292 288
245 233 238 256 267 276 275 267 264 269 268 268 254 240 232 239 254 259 261 261 252 253 255 248 260 276 282 228 209 226 234 234 230 232 229 226 228 229 229 235 250 278 305 309
242 246 237 241 251 260 262 248 248 262 266 261 254 247 240 239 254 266 267 236 223 252 261 255 262 272 271 227 229 240 244 237 226 217 216 218 221 224 232 237 248 261 271 281
218 236 236 244 251 254 247 243 241 247 253 251 250 253 248 244 257 265 267 250 231 244 252 250 262 276 265 242 230 234 234 236 229 225 222 218 222 226 228 231 244 261 272 275
227 229 226 225 230 239 248 249 246 244 243 243 240 239 238 235 243 257 264 263 261 271 264 254 254 256 251 245 228 224 220 224 225 229 234 226 226 222 223 233 244 258 278 286
234 231 235 235 231 228 236 243 244 245 248 242 233 236 239 241 243 251 252 240 246 265 272 265 260 250 248 244 227 213 212 215 224 235 237 239 242 234 229 235 244 251 261 270
236 237 237 249 248 232 238 245 243 245 244 232 232 243 250 251 244 241 236 238 243 247 259 266 260 249 251 246 235 212 211 214 219 228 231 234 236 236 236 239 242 245 250 256
245 244 242 249 261 260 247 240 234 241 244 227 223 234 245 253 246 234 236 261 266 252 255 262 260 256 248 242 233 217 215 217 219 222 226 230 233 236 237 239 243 247 249 257
247 243 245 250 256 268 267 251 238 237 238 236 234 234 240 252 251 247 243 244 257 259 262 254 253 253 249 243 219 218 221 221 222 223 224 225 226 233 239 241 241 245 248 249
244 243 243 247 250 262 273 261 246 239 239 238 236 235 239 246 240 241 266 255 245 255 258 250 253 254 258 243 218 217 222 224 226 226 227 228 229 232 236 240 241 240 242 247
245 244 243 246 247 255 265 267 261 252 247 248 244 238 237 247 256 245 246 252 252 259 257 251 252 256 259 241 222 220 224 227 228 229 231 233 233 232 232 236 242 243 241 244
244 245 244 239 241 249 254 263 269 263 255 257 256 250 241 233 239 252 249 245 250 259 262 256 256 259 252 233 227 227 228 230 229 221 223 231 235 236 237 238 239 242 247 250
244 243 244 242 242 246 247 246 253 256 254 261 266 256 248 243 238 243 247 245 244 254 258 257 253 253 243 233 232 230 228 236 243 236 228 230 234 236 238 240 243 246 249 253
249 251 254 261 257 243 240 242 247 252 248 248 261 257 249 246 242 242 244 246 246 245 246 248 243 239 237 236 235 233 229 228 226 226 225 226 229 233 235 238 243 250 256 258
Height
1500 1497 1496 1495 1494 1495 1495 1494 1494 1485 1482 1474 1471 1469 1468 1467 1467 1467 1466 1466 1465 1465 1465 1466 1466 1467 1467 1467 1468 1468 1469 1469 1469 1470 1470 1470 1470 1470 1469 1469 1468 1467 1467 1467
1499 1494 1493 1492 1489 1489 1489 1489 1487 1483 1478 1470 1469 1468 1467 1466 1466 1465 1465 1464 1464 1464 1463 1463 1463 1464 1464 1465 1465 1465 1466 1466 1467 1467 1467 1467 1467 1467 1466 1465 1464 1464 1464 1464
1498 1496 1493 1489 1482 1482 1482 1480 1480 1478 1472 1469 1468 1466 1465 1465 1464 1464 1463 1462 1462 1462 1461 1462 1462 1462 1462 1462 1463 1463 1463 1464 1464 1464 1464 1465 1464 1464 1463 1462 1461 1461 1461 1461
1502 1499 1490 1478 1475 1475 1476 1475 1475 1472 1469 1468 1466 1464 1463 1463 1463 1462 1461 1461 1460 1460 1460 1460 1460 1460 1460 1460 1460 1460 1461 1461 1462 1461 1462 1462 1462 1461 1460 1460 1459 1458 1458 1458
1505 1502 1491 1478 1474 1475 1476 1473 1469 1469 1467 1466 1465 1463 1461 1461 1461 1460 1459 1459 1458 1458 1458 1458 1458 1457 1457 1457 1457 1457 1458 1458 1459 1459 1459 1459 1458 1458 1458 1457 1457 1456 1456 1455
1504 1498 1486 1475 1472 1471 1474 1472 1465 1465 1465 1464 1464 1465 1461 1458 1458 1457 1457 1457 1456 1456 1455 1455 1455 1455 1455 1454 1455 1455 1455 1456 1456 1457 1457 1457 1456 1456 1456 1455 1455 1454 1453 1452
1501 1499 1484 1473 1471 1471 1476 1469 1463 1462 1462 1462 1462 1461 1459 1457 1456 1456 1455 1455 1454 1454 1453 1453 1453 1453 1452 1452 1452 1453 1453 1454 1454 1454 1455 1455 1454 1454 1453 1453 1452 1451 1451 1450
1499 1498 1483 1469 1470 1470 1467 1463 1461 1461 1460 1460 1459 1458 1457 1456 1455 1454 1453 1452 1452 1451 1451 1451 1451 1450 1450 1450 1450 1450 1451 1451 1451 1452 1452 1452 1452 1451 1451 1451 1450 1449 1449 1448
1483 1476 1467 1465 1463 1462 1461 1461 1459 1459 1458 1458 1456 1455 1454 1454 1453 1452 1451 1451 1450 1450 1449 1449 1449 1448 1448 1448 1448 1448 1448 1448 1449 1449 1449 1450 1450 1449 1449 1448 1448 1447 1446 1445
1475 1466 1463 1462 1461 1460 1459 1458 1457 1456 1456 1455 1453 1452 1452 1451 1450 1450 1449 1448 1448 1447 1447 1446 1446 1446 1446 1446 1446 1446 1446 1446 1446 1447 1447 1447 1447 1447 1446 1446 1445 1445 1444 1443
1469 1463 1460 1457 1457 1456 1456 1455 1454 1454 1453 1452 1451 1449 1449 1448 1447 1447 1447 1446 1446 1445 1444 1444 1444 1444 1444 1443 1443 1443 1443 1443 1444 1444 1444 1444 1444 1444 1444 1443 1443 1443 1442 1441
1460 1456 1456 1453 1452 1453 1452 1451 1451 1450 1449 1449 1448 1447 1446 1445 1445 1444 1444 1443 1443 1442 1442 1442 1441 1441 1441 1441 1441 1441 1440 1441 1441 1441 1441 1441 1441 1441 1441 1441 1440 1440 1439 1439
1452 1451 1451 1449 1449 1449 1448 1448 1448 1447 1446 1445 1445 1444 1443 1442 1442 1442 1441 1441 1440 1440 1440 1439 1439 1439 1439 1438 1438 1438 1438 1438 1438 1438 1438 1438 1438 1438 1437 1438 1437 1437 1436 1436
1449 1448 1447 1445 1445 1445 1445 1444 1444 1443 1443 1442 1442 1441 1440 1440 1439 1439 1439 1438 1438 1438 1437 1437 1436 1436 1436 1436 1436 1436 1435 1435 1435 1435 1435 1435 1435 1435 1434 1434 1434 1433 1434 1433
1444 1444 1443 1442 1442 1441 1441 1441 1440 1439 1439 1439 1438 1438 1437 1437 1436 1436 1436 1436 1435 1435 1434 1434 1433 1433 1433 1433 1433 1432 1432 1432 1432 1433 1433 1432 1432 1432 1432 1431 1431 1430 1430 1430
1440 1440 1439 1439 1438 1438 1438 1437 1436 1436 1435 1435 1435 1435 1435 1434 1434 1433 1433 1433 1432 1431 1431 1431 1430 1430 1430 1430 1430 1429 1429 1429 1429 1429 1429 1429 1429 1429 1428 1428 1428 1427 1427 1427
1436 1434 1434 1434 1434 1434 1434 1434 1433 1433 1433 1432 1432 1432 1431 1431 1431 1430 1430 1430 1429 1428 1428 1428 1428 1428 1427 1427 1427 1427 1426 1426 1426 1426 1426 1426 1426 1425 1425 1425 1424 1424 1424 1424
1431 1431 1431 1431 1431 1431 1431 1431 1431 1430 1430 1429 1429 1429 1428 1428 1427 1427 1427 1427 1426 1425 1425 1425 1425 1424 1424 1424 1424 1424 1423 1423 1423 1423 1423 1422 1422 1422 1422 1422 1422 1421 1421 1421
1428 1428 1428 1428 1428 1428 1428 1428 1428 1427 1427 1427 1426 1426 1425 1425 1424 1424 1424 1423 1422 1421 1422 1422 1421 1421 1421 1421 1420 1420 1420 1419 1419 1419 1419 1419 1419 1419 1419 1419 1418 1418 1418 1418
1425 1425 1425 1425 1425 1425 1425 1425 1424 1424 1424 1424 1423 1422 1422 1421 1421 1421 1420 1419 1419 1419 1419 1418 1418 1417 1417 1417 1417 1416 1416 1416 1416 1416 1416 1416 1416 1416 1415 1415 1415 1415 1415 1414
1422 1422 1422 1422 1422 1422 1422 1421 1421 1421 1420 1420 1420 1419 1418 1418 1418 1417 1416 1415 1416 1416 1415 1415 1414 1414 1413 1413 1413 1412 1412 1412 1412 1412 1412 1412 1412 1412 1412 1412 1412 1412 1411 1411
1419 1419 1419 1419 1418 1418 1418 1418 1418 1417 1417 1416 1416 1415 1415 1414 1414 1413 1413 1413 1412 1412 1412 1411 1411 1410 1410 1410 1409 1409 1408 1408 1408 1408 1408 1408 1408 1408 1408 1408 1408 1408 1408 1408
1416 1416 1415 1415 1415 1415 1415 1414 1414 1414 1413 1413 1412 1412 1411 1411 1410 1410 1409 1409 1409 1408 1408 1407 1407 1407 1406 1406 1405 1405 1405 1404 1404 1404 1404 1405 1405 1405 1405 1405 1405 1405 1405 1404
1412 1412 1412 1412 1411 1411 1410 1410 1410 1410 1409 1409 1409 1408 1408 1407 1406 1406 1406 1405 1405 1404 1404 1404 1404 1403 1402 1402 1401 1401 1401 1401 1401 1401 1401 1401 1401 1402 1402 1402 1402 1402 1402 1401
1408 1408 1407 1407 1407 1406 1406 1406 1406 1405 1405 1405 1404 1404 1404 1403 1403 1402 1402 1401 1401 1400 1400 1400 1399 1399 1398 1398 1397 1397 1397 1397 1397 1398 1398 1398 1398 1398 1399 1399 1398 1398 1398 1398
1404 1403 1403 1403 1402 1402 1402 1401 1401 1400 1400 1400 1399 1399 1399 1399 1398 1398 1397 1397 1397 1396 1396 1395 1395 1395 1394 1394 1394 1394 1394 1394 1394 1394 1395 1395 1395 1395 1395 1395 1395 1395 1395 1395
1399 1399 1398 1398 1397 1397 1397 1397 1396 1395 1395 1395 1394 1394 1394 1394 1393 1393 1393 1392 1392 1392 1392 1391 1391 1391 1390 1390 1390 1390 1390 1390 1391 1391 1391 1392 1392 1392 1392 1392 1392 1392 1392 1392